Location: Gadern
(49.5873°N, 8.8138°E)
Time: 10:43:35
(UTC+00:00)

Meteor 2-10 - Pass Details

Date: 19 May 2025
Orbit: 736 x 866 km, 81.2° (Epoch: 23 June)

Event Time Altitude Azimuth Distance (km) Brightness Sun altitude
Rises 21:01:54 0° 347° (NNW) 3,457 8.8 -13.9°
Reaches altitude 10° 21:04:21 10° 348° (NNW) 2,509 7.8 -14.1°
Maximum altitude 21:10:05 90° 265° (W) 854 4.2 -14.6°
Enters shadow 21:14:00 20° 170° (S) 1,817 5.4 -14.9°
